Fremont, NE

6:37 PM CDT on August 25, 2016 (GMT -0500)
Fremont Municipal

Weather History for KFET - September, 2012

Change the Weather History Date:

Monday, September 10, 2012

  Actual Average Record
Temperature  
Mean Temperature 72 °F -  
Max Temperature 89 °F 81 °F 95 °F (1953)
Min Temperature 55 °F 54 °F 38 °F (1976)
Cooling Degree Days 6    
Growing Degree Days 22 (Base 50)    
Moisture  
Dew Point 49 °F    
Average Humidity 47    
Maximum Humidity 74    
Minimum Humidity 24    
Precipitation  
Precipitation 0.00 in - - ()
Sea Level Pressure  
Sea Level Pressure 30.01 in    
Wind  
Wind Speed 11 mph (SSE)    
Max Wind Speed 23 mph    
Max Gust Speed 30 mph    
Visibility 10 miles    
Events      
Averages and records for this station are not official NWS values.
T = Trace of Precipitation, MM = Missing Value Source: NWS Daily Summary

Daily Weather History Graph

Daily Weather History Graph

Search for Another Location

Airport or City:

Trip Planner

Search our weather history database for the weather conditions in past years. The results will help you decide how hot, cold, wet, or windy it might be!

Date:

Astronomy

Sep. 10, 2012 Rise Set
Actual Time 7:01 AM CDT 7:43 PM CDT
Civil Twilight 6:33 AM CDT 8:10 PM CDT
Nautical Twilight 6:00 AM CDT 8:43 PM CDT
Astronomical Twilight 5:26 AM CDT 9:18 PM CDT
Moon 1:21 AM CDT (9/10) 4:16 PM CDT (9/10)
Length of Visible Light 13h 37m
Length of Day
12h 41m
Waning Crescent, 30% of the Moon is Illuminated
Sep 10
Waning Crescent
Sep 15
New
Sep 22
First Quarter
Sep 29
Full
Oct 8
Last Quarter

Hourly Weather History & Observations

Time (CDT) Temp. Dew Point Humidity Pressure Visibility Wind Dir Wind Speed Gust Speed Precip Events Conditions
12:15 AM 62.1 °F 46.9 °F 58% 30.13 in 10.0 mi SSE 8.1 mph - N/A   Clear
12:35 AM 63.0 °F 47.3 °F 57% 30.13 in 10.0 mi SSE 8.1 mph - N/A   Clear
12:55 AM 63.0 °F 46.9 °F 56% 30.13 in 10.0 mi SSE 8.1 mph - N/A   Clear
1:15 AM 62.6 °F 47.3 °F 57% 30.12 in 10.0 mi SSE 9.2 mph - N/A   Clear
1:35 AM 62.1 °F 47.5 °F 59% 30.12 in 10.0 mi SSE 8.1 mph - N/A   Clear
1:55 AM 62.4 °F 47.5 °F 58% 30.12 in 10.0 mi SSE 6.9 mph - N/A   Clear
2:15 AM 61.7 °F 47.5 °F 60% 30.12 in 10.0 mi South 6.9 mph - N/A   Clear
2:35 AM 61.0 °F 47.5 °F 61% 30.11 in 10.0 mi SSE 8.1 mph - N/A   Clear
2:55 AM 60.1 °F 47.7 °F 64% 30.11 in 10.0 mi SSE 9.2 mph - N/A   Clear
3:15 AM 60.8 °F 47.7 °F 62% 30.11 in 10.0 mi South 8.1 mph - N/A   Clear
3:35 AM 59.5 °F 47.7 °F 65% 30.11 in 10.0 mi South 6.9 mph - N/A   Clear
3:55 AM 59.4 °F 47.7 °F 65% 30.11 in 10.0 mi SSE 5.8 mph - N/A   Clear
4:15 AM 59.0 °F 47.7 °F 66% 30.10 in 10.0 mi SSE 5.8 mph - N/A   Clear
4:35 AM 57.7 °F 47.7 °F 69% 30.10 in 10.0 mi SSE 6.9 mph - N/A   Clear
4:55 AM 57.2 °F 47.5 °F 70% 30.10 in 10.0 mi SSE 8.1 mph - N/A   Clear
5:15 AM 56.3 °F 47.7 °F 73% 30.09 in 10.0 mi SSE 4.6 mph - N/A   Clear
5:35 AM 56.7 °F 47.7 °F 72% 30.09 in 10.0 mi SE 6.9 mph - N/A   Clear
5:55 AM 56.3 °F 47.7 °F 73% 30.10 in 10.0 mi SSE 5.8 mph - N/A   Clear
6:15 AM 55.8 °F 47.5 °F 74% 30.10 in 10.0 mi SSE 6.9 mph - N/A   Clear
6:35 AM 56.8 °F 47.8 °F 72% 30.10 in 10.0 mi SSE 9.2 mph - N/A   Clear
6:55 AM 56.3 °F 47.7 °F 73% 30.11 in 10.0 mi South 8.1 mph - N/A   Clear
7:15 AM 56.5 °F 47.7 °F 72% 30.11 in 10.0 mi SSE 9.2 mph - N/A   Clear
7:35 AM 57.2 °F 47.8 °F 71% 30.11 in 10.0 mi SSE 9.2 mph - N/A   Clear
7:55 AM 58.1 °F 48.2 °F 70% 30.11 in 10.0 mi South 8.1 mph - N/A   Clear
8:15 AM 60.1 °F 48.6 °F 66% 30.10 in 10.0 mi SSE 10.4 mph - N/A   Clear
8:35 AM 61.9 °F 49.1 °F 63% 30.09 in 10.0 mi SSE 11.5 mph - N/A   Clear
8:55 AM 63.7 °F 49.3 °F 59% 30.10 in 10.0 mi South 11.5 mph 19.6 mph N/A   Clear
9:15 AM 64.9 °F 50.0 °F 58% 30.09 in 10.0 mi South 10.4 mph 16.1 mph N/A   Clear
9:35 AM 65.8 °F 50.0 °F 57% 30.08 in 10.0 mi South 13.8 mph 19.6 mph N/A   Clear
9:55 AM 68.2 °F 50.4 °F 53% 30.07 in 10.0 mi SSE 12.7 mph 18.4 mph N/A   Clear
10:15 AM 69.8 °F 50.2 °F 50% 30.08 in 10.0 mi SSE 11.5 mph 19.6 mph N/A   Clear
10:35 AM 71.8 °F 49.3 °F 45% 30.07 in 10.0 mi South 19.6 mph 26.5 mph N/A   Clear
10:55 AM 73.6 °F 49.1 °F 42% 30.06 in 10.0 mi South 21.9 mph 26.5 mph N/A   Clear
11:15 AM 75.2 °F 49.5 °F 40% 30.05 in 10.0 mi SSE 11.5 mph 26.5 mph N/A   Clear
11:35 AM 76.1 °F 48.9 °F 38% 30.04 in 10.0 mi SSE 20.7 mph 26.5 mph N/A   Clear
11:55 AM 76.8 °F 48.4 °F 37% 30.04 in 10.0 mi SSE 19.6 mph 28.8 mph N/A   Clear
12:15 PM 79.0 °F 48.7 °F 35% 30.03 in 10.0 mi SSE 20.7 mph 25.3 mph N/A   Clear
12:35 PM 79.2 °F 48.4 °F 34% 30.02 in 10.0 mi SSE 23.0 mph 28.8 mph N/A   Clear
12:55 PM 80.2 °F 48.7 °F 33% 30.01 in 10.0 mi SSE 16.1 mph 26.5 mph N/A   Clear
1:15 PM 81.1 °F 48.6 °F 32% 30.00 in 10.0 mi South 18.4 mph 26.5 mph N/A   Clear
1:35 PM 82.8 °F 48.6 °F 30% 29.99 in 10.0 mi South 15.0 mph 26.5 mph N/A   Clear
1:55 PM 83.5 °F 48.7 °F 30% 29.98 in 10.0 mi SSE 18.4 mph 23.0 mph N/A   Clear
2:15 PM 84.7 °F 48.6 °F 28% 29.97 in 10.0 mi South 16.1 mph 28.8 mph N/A   Clear
2:35 PM 85.5 °F 48.7 °F 28% 29.96 in 10.0 mi South 15.0 mph 26.5 mph N/A   Clear
2:55 PM 86.5 °F 48.9 °F 27% 29.95 in 10.0 mi South 18.4 mph 23.0 mph N/A   Clear
3:15 PM 86.7 °F 48.2 °F 26% 29.94 in 10.0 mi South 20.7 mph 26.5 mph N/A   Clear
3:35 PM 87.3 °F 48.2 °F 26% 29.93 in 10.0 mi South 20.7 mph 25.3 mph N/A   Clear
3:55 PM 88.0 °F 48.2 °F 25% 29.92 in 10.0 mi South 13.8 mph 25.3 mph N/A   Clear
4:15 PM 88.5 °F 48.4 °F 25% 29.92 in 10.0 mi South 17.3 mph 27.6 mph N/A   Clear
4:35 PM 88.2 °F 47.8 °F 25% 29.92 in 10.0 mi South 16.1 mph 27.6 mph N/A   Clear
4:55 PM 88.5 °F 47.7 °F 24% 29.91 in 10.0 mi South 17.3 mph 25.3 mph N/A   Clear
5:15 PM 88.3 °F 48.2 °F 25% 29.91 in 10.0 mi SSE 15.0 mph 29.9 mph N/A   Clear
5:35 PM 88.0 °F 48.2 °F 25% 29.90 in 10.0 mi South 16.1 mph 25.3 mph N/A   Clear
5:55 PM 88.0 °F 48.7 °F 26% 29.89 in 10.0 mi South 16.1 mph 23.0 mph N/A   Clear
6:15 PM 87.4 °F 48.4 °F 26% 29.89 in 10.0 mi South 17.3 mph 20.7 mph N/A   Clear
6:35 PM 86.5 °F 48.2 °F 26% 29.88 in 10.0 mi South 17.3 mph 26.5 mph N/A   Clear
6:55 PM 85.6 °F 48.4 °F 27% 29.88 in 10.0 mi South 13.8 mph 27.6 mph N/A   Clear
7:15 PM 84.2 °F 48.7 °F 29% 29.88 in 10.0 mi South 12.7 mph 23.0 mph N/A   Clear
7:35 PM 82.9 °F 49.1 °F 31% 29.87 in 10.0 mi SSE 13.8 mph 20.7 mph N/A   Clear
7:55 PM 81.3 °F 49.5 °F 33% 29.87 in 10.0 mi SSE 12.7 mph 19.6 mph N/A   Clear
8:15 PM 79.9 °F 49.8 °F 35% 29.88 in 10.0 mi SSE 13.8 mph 18.4 mph N/A   Clear
8:35 PM 79.2 °F 50.0 °F 36% 29.89 in 10.0 mi SSE 10.4 mph 17.3 mph N/A   Clear
8:55 PM 78.8 °F 50.0 °F 36% 29.89 in 10.0 mi SSE 12.7 mph 23.0 mph N/A   Clear
9:15 PM 77.4 °F 49.6 °F 38% 29.89 in 10.0 mi SSE 9.2 mph - N/A   Clear
9:35 PM 76.5 °F 49.5 °F 39% 29.89 in 10.0 mi SSE 11.5 mph 17.3 mph N/A   Clear
9:55 PM 75.2 °F 49.6 °F 41% 29.90 in 10.0 mi SE 10.4 mph 17.3 mph N/A   Clear
10:15 PM 73.9 °F 50.0 °F 43% 29.89 in 10.0 mi SSE 13.8 mph 18.4 mph N/A   Clear
10:35 PM 73.6 °F 50.2 °F 44% 29.89 in 10.0 mi SSE 12.7 mph 18.4 mph N/A   Clear
10:55 PM 72.7 °F 50.7 °F 46% 29.89 in 10.0 mi SSE 16.1 mph 20.7 mph N/A   Clear
11:15 PM 72.0 °F 51.1 °F 48% 29.89 in 10.0 mi SSE 11.5 mph 20.7 mph N/A   Clear
11:35 PM 71.6 °F 51.3 °F 49% 29.89 in 10.0 mi SSE 15.0 mph 25.3 mph N/A   Clear
11:55 PM 71.1 °F 51.8 °F 50% 29.89 in 10.0 mi SSE 13.8 mph 19.6 mph N/A   Clear